Hourly Data Report for June 15, 2020

All times are specified in Local Standard Time (LST). Add 1 hour to adjust for Daylight Saving Time where and when it is observed.

OTTAWA INTL A
ONTARIO
Current Station Operator: NAVCAN

45°19'00.000" N
75°40'00.000" W
114.90 m
6106001
71628
YOW

Download Data

Hourly Data (June 2020)
Hourly Data Report for June 15, 2020
TIME Temp Definition
°C
Dew Point Definition
°C
Rel Hum Definition
%
Wind Dir Definition
10's deg

Wind Spd Definition
km/h
Visibility Definition
km
Stn Press Definition
kPa
Hmdx Definition


Wind Chill Definition


Weather Definition


00:00 10.8 4.8 66 2 3 24.1 101.73     LegendNANA
01:00 8.3 4.1 75 3 8 24.1 101.73     Clear
02:00 8.3 4.3 76 4 8 24.1 101.71     LegendNANA
03:00 8.5 5.2 80 2 8 24.1 101.73     LegendNANA
04:00 7.4 5.2 86 36 6 24.1 101.76     Clear
05:00 7.8 6.0 88 36 8 24.1 101.82     LegendNANA
06:00 12.2 8.2 77 2 7 24.1 101.84     LegendNANA
07:00 14.7 7.1 60 4 9 24.1 101.90     Clear
08:00 17.7 5.6 45 4 8 24.1 101.93     LegendNANA
09:00 19.4 4.3 37 5 10 24.1 101.90     LegendNANA
10:00 21.1 5.0 35 3 16 24.1 101.88     Mainly Clear
11:00 21.1 6.7 39 5 12 24.1 101.80     LegendNANA
12:00 21.9 4.4 31 10 13 24.1 101.73     LegendNANA
13:00 22.0 5.8 34 6 9 24.1 101.70     Clear
14:00 23.3 6.1 32 4 8 24.1 101.65     LegendNANA
15:00 23.4 4.1 28 14 11 24.1 101.61     LegendNANA
16:00 22.9 3.8 28 15 7 24.1 101.57     Mostly Cloudy
17:00 23.0 4.7 30 13 10 24.1 101.52     LegendNANA
18:00 22.6 5.9 34 14 5 24.1 101.50     LegendNANA
19:00 20.5 8.0 44 16 5 24.1 101.50     Mainly Clear
20:00 16.8 5.4 47 17 7 24.1 101.49     LegendNANA
21:00 15.6 5.1 49 20 5 24.1 101.54     LegendNANA
22:00 15.2 5.2 51 17 11 24.1 101.55     Mainly Clear
23:00 15.4 6.1 53 20 8 24.1 101.56     LegendNANA

Notes on Data Quality.

Legend

  • E = Estimated
  • M = Missing
  • NA = Not Available*
  • [empty] = Indicates an unobserved value
Date modified: